ARIANE 5 DEB (SYLDA), 54744

Orbit data source: Space-Track

ARIANE 5 DEB (SYLDA), 54744 is space debris in HEO originally from a launch on Tue, 13 Dec 2022 UTC launched from the French Guiana (FRGUI). Debris objects in space refer to the collection of defunct objects orbiting the Earth. Examples of debris include non-operational satellites, rocket bodies, and fragments generated from explosions, collisions, or faulty payload assembly.

Loading next visibility...
Identifier
54744, 2022-170D
Orbit
HEO
Country
Flag of FRFR
Related business
Manufacturer
ADS/Bremen
Mission
Spacecraft
Bus & Motor
SYLDA 5, Unknown motor
Mass
440 kg wet, 440 kg dry
Launch date (UTC)
2022-12-13 (3 years ago)
Launch vehicle
Unknown
Launch site
French Guiana (FRGUI)
Object type
Payload
Rocket body
Debris
Shape & HBR
Cyl, 2.8 m
Radar Cross Section
27.391 m², Large (>1 m²)

Expand to show TLE details & history
Last TLE update: 7 hours ago

TLE from 7 hours ago
0 ARIANE 5 DEB (SYLDA)
1 54744U 22170D   26123.58376018  .00320199 -13259-7  56036-2 0  9992
2 54744   6.3271 314.0135 5371089 324.9025   9.2544  5.13445753 46887
Epoch: 2026-05-03T14:00Z
TLE epoch observation values (Epoch: 2026-05-03T14:00:36.879Z)
Latitude
Longitude
-117.6857°
Altitude
639.003 km
Speed
9.247 km/s
True Right ascension
20h 55m 48s
True Declination
0° 00' 00"
Sunlit
Object was in daylight at epoch
Visualization orbit readout
Latitude
Unknown
Longitude
Unknown
Altitude
Unknown
Speed
Unknown
Apparent Right ascension
Unknown
Apparent Declination
Unknown
Sunlit
N/A
Visualization observer readout
Local Sidereal Time
04:55:39
Azimuth
Unknown
Elevation
Unknown
Doppler factor
Unknown
Orbital elements
Apogee altitude
15,445.764 km
Perigee altitude
193.999 km
Semi-major axis
14,198.018 km
Eccentricity
0.53711
Inclination
6.3271°
RAAN
314.0135°
Arg. of periapsis
324.9025°
True anomaly
34.86651°
Mean anomaly
9.2544°
Eccentric anomaly
19.55467°
Mean motion
1.28293 °/min
Orbital period
280.61 mins
BSTAR
0.0056036
Loading maneuver chart data...
Computing Atmospheric mass density...
Loading historical data...
Loading historical data...
Loading historical data...
Loading historical data...
Loading historical data...
Loading historical data...
Loading historical data...
Other satellites on launch #170 in the year 2022 (2022-12-13 UTC)

Documentation

Showing up to 5 results
|